Theta_e
352 352 351 352 352 353 348 336 335 337 338 337 335 335 338 340 341 344 349 348 349 350 354 354 353 350 351 351 351 353 352 351 352 351 351 350 347 350 351 350 350 347 348
351 350 349 350 351 353 347 337 338 339 345 349 345 346 345 345 350 346 351 353 349 352 354 353 353 350 351 350 351 352 351 351 351 351 351 352 351 349 352 350 348 348 347
348 349 349 349 351 352 345 337 337 336 342 346 347 347 347 347 348 349 350 353 353 354 353 351 349 349 352 351 351 347 345 347 352 345 345 344 350 351 349 347 347 344 348
346 348 347 348 350 347 344 342 339 338 342 346 346 347 348 349 352 353 353 352 351 348 343 342 335 341 342 338 344 345 344 344 350 348 343 346 348 349 349 347 348 347 345
348 352 351 349 348 347 345 340 341 338 343 346 347 347 347 347 350 353 352 349 346 351 352 350 341 344 346 340 340 342 343 345 345 346 348 341 332 334 343 348 349 344 335
346 342 346 347 348 347 344 341 340 341 343 345 347 349 353 353 350 352 351 348 351 351 352 349 346 344 342 342 342 343 344 347 349 348 348 348 339 341 336 335 343 343 329
345 343 346 346 341 346 344 341 339 343 342 345 346 349 349 349 352 350 345 339 345 353 347 347 336 333 336 336 337 340 344 346 349 347 348 346 340 345 346 335 338 334 337
346 346 350 347 344 340 338 340 342 342 345 345 343 341 346 349 349 348 344 344 339 345 344 350 347 341 336 335 335 338 342 347 348 347 347 339 334 338 340 339 331 341 346
346 347 348 344 351 343 344 343 343 344 345 339 337 339 342 342 342 344 345 348 346 337 338 342 343 343 342 341 339 338 340 343 347 348 345 332 334 342 337 341 341 334 339
347 347 346 345 347 349 338 341 343 345 344 338 338 337 341 346 343 343 341 341 342 341 340 341 342 340 339 341 340 340 341 343 345 349 347 333 332 337 337 336 340 340 339
349 347 346 346 348 342 336 340 341 342 342 341 339 336 337 349 351 352 348 340 339 340 340 340 340 337 335 335 337 339 340 342 344 348 348 342 333 331 334 329 330 336 339
349 347 345 344 341 342 338 336 336 336 337 337 336 336 340 347 351 349 349 345 342 341 340 346 345 345 337 338 334 345 346 345 343 346 347 347 339 335 334 330 329 330 338
350 350 347 344 343 342 341 339 336 333 332 329 333 342 348 351 351 348 349 348 345 345 347 345 347 348 348 347 349 347 346 347 346 346 347 348 342 342 339 332 328 327 330
352 351 350 347 347 348 347 345 344 345 340 333 334 341 347 352 350 348 348 346 346 348 348 345 340 348 347 349 348 347 346 345 345 344 345 347 346 345 344 342 336 329 327
353 353 352 351 350 350 351 349 346 348 347 346 345 345 345 349 349 348 349 348 348 348 349 347 346 346 347 348 348 348 349 345 343 344 344 346 347 346 345 346 343 338 332
351 352 352 352 351 351 352 352 349 350 350 349 347 346 347 347 346 344 348 350 349 349 348 348 345 347 344 338 344 347 348 348 348 343 343 343 345 347 345 344 346 344 340
352 352 353 352 352 353 354 353 354 353 353 353 351 349 347 348 349 347 347 347 347 347 348 348 348 347 343 344 345 347 348 348 346 347 346 344 343 344 347 345 344 345 345
353 353 353 354 354 356 354 355 353 350 350 353 349 349 351 350 350 349 349 349 348 345 348 347 348 347 346 346 347 349 348 345 335 343 346 341 343 343 342 345 345 345 347
355 353 353 355 355 355 353 352 352 348 349 350 350 349 348 350 351 352 351 350 351 350 350 348 347 347 346 346 344 347 347 347 340 338 344 346 347 345 345 344 342 341 344
353 355 352 351 351 350 349 351 351 348 348 348 349 349 351 351 352 353 353 352 352 351 351 350 349 348 346 345 344 340 343 344 345 342 343 344 346 346 345 343 344 341 343
354 353 353 353 352 352 352 352 353 352 349 352 352 351 352 346 342 346 351 353 353 353 350 349 350 349 347 347 340 343 343 343 344 343 343 342 342 343 346 348 343 342 343
350 351 352 353 354 353 354 355 353 352 353 353 352 352 352 350 348 347 351 353 353 352 350 348 349 348 346 346 345 344 342 343 343 344 345 342 340 348 348 348 349 345 345
352 353 355 355 355 355 356 356 355 355 356 354 355 354 353 352 353 348 350 352 351 354 352 351 349 349 348 348 347 345 342 343 343 342 343 344 344 343 342 343 348 347 347
353 352 353 354 355 356 356 356 357 357 357 355 355 355 354 355 355 350 340 348 352 354 348 344 346 347 349 348 347 346 346 345 344 345 342 342 343 343 340 340 340 347 348
353 354 354 355 357 358 359 357 357 357 358 355 357 356 355 355 344 336 336 336 335 336 338 340 340 341 341 341 342 342 343 345 345 343 344 342 342 341 341 342 342 343 345
355 356 356 357 358 359 360 359 357 358 360 359 352 348 348 343 339 335 334 336 337 338 337 336 337 339 339 338 338 338 339 340 341 341 341 340 341 341 341 342 343 343 342
Wind_Speed
13 17 22 22 24 25 26 30 30 28 28 27 26 25 24 22 21 19 17 16 15 15 14 13 12 12 14 16 16 15 16 15 16 16 16 16 15 15 14 14 14 14 14
18 19 22 23 23 23 25 26 27 26 25 25 24 23 21 20 18 17 15 15 16 16 15 13 12 13 14 15 15 14 14 13 15 15 14 15 14 12 11 12 13 14 12
21 20 22 22 22 21 23 23 23 24 22 21 22 21 20 18 17 16 15 15 13 13 12 11 10 12 13 14 14 14 14 12 14 12 11 14 13 14 12 11 12 11 12
23 20 21 21 20 21 21 21 19 19 19 19 19 19 18 17 16 14 12 12 11 11 11 11 11 11 11 12 14 14 15 14 11 9 10 10 10 11 12 13 13 13 11
23 22 22 21 20 20 20 19 18 16 17 19 17 17 16 15 14 12 11 11 13 12 11 10 10 10 9 10 10 10 8 7 5 7 6 7 9 10 12 13 13 11 10
23 22 21 20 19 19 19 18 17 16 16 16 16 16 14 13 13 11 10 11 11 11 10 9 8 7 9 9 6 4 2 2 3 12 17 10 10 11 11 11 11 10 12
23 22 20 20 19 18 17 17 16 15 15 15 15 14 13 11 12 10 12 11 10 10 7 7 7 7 7 6 4 2 3 4 1 11 16 14 12 11 11 10 10 11 11
24 22 20 20 18 17 18 17 15 15 15 14 12 12 10 9 10 10 11 10 9 9 8 6 4 3 3 2 3 2 1 2 1 13 15 12 11 12 12 10 10 10 10
23 23 21 20 16 16 16 15 14 14 14 12 11 10 9 9 10 9 8 7 7 7 6 4 3 2 2 2 2 4 2 1 1 13 13 11 11 12 12 12 11 11 11
23 21 20 20 18 16 16 13 13 13 12 10 9 8 8 8 8 7 5 4 4 4 4 4 4 4 5 5 4 5 5 3 7 7 14 13 9 13 13 13 13 13 12
22 21 21 21 20 17 16 14 13 12 10 9 8 6 4 4 4 2 1 1 0 3 3 3 3 6 8 9 9 8 8 6 3 5 11 16 13 14 15 14 14 14 14
23 22 22 21 21 18 16 15 13 12 11 9 7 5 2 2 4 4 4 4 3 4 5 5 5 5 6 8 10 12 14 13 12 13 14 19 16 15 16 14 14 15 16
23 22 22 22 20 19 17 15 14 13 12 10 7 7 3 2 5 6 9 9 8 7 8 7 11 10 8 9 9 9 10 11 11 13 16 19 18 16 15 15 15 16 17
26 23 22 22 22 20 18 18 16 16 15 13 12 10 8 7 6 6 9 8 10 11 11 13 11 9 11 13 11 13 16 18 11 12 13 17 17 15 16 16 16 16 17
27 25 24 23 23 22 19 16 17 16 15 14 12 11 12 13 12 9 8 11 13 12 13 14 15 12 11 12 14 14 16 15 18 16 13 16 19 17 18 19 19 18 17
28 27 25 22 23 23 20 18 18 19 17 16 16 12 16 15 12 13 12 11 11 12 13 16 18 15 16 17 15 15 17 17 18 18 18 18 19 23 20 20 20 21 20
30 29 29 25 22 23 19 15 15 21 23 18 19 18 21 17 17 14 13 14 15 15 15 14 17 20 22 17 17 15 16 16 19 21 21 21 22 20 23 22 22 22 22
31 31 29 26 21 18 20 20 12 10 8 3 5 1 8 21 20 13 12 10 11 13 14 14 16 16 20 21 20 19 16 18 22 24 22 23 23 24 24 25 25 25 24
35 33 31 29 26 21 19 18 15 14 9 5 6 7 6 5 18 16 17 16 14 13 15 17 19 16 18 17 17 16 20 26 23 19 24 26 29 29 28 28 31 29 29
36 36 31 28 27 22 18 16 14 12 13 11 11 11 10 8 8 16 19 17 15 16 18 20 21 21 19 18 22 18 22 24 25 26 28 24 28 31 32 37 33 34 32
36 35 33 30 27 23 19 18 16 17 14 15 14 13 13 12 10 13 16 16 17 17 16 15 17 17 20 18 14 16 15 22 28 28 26 26 29 34 37 37 35 34 37
37 35 32 28 29 27 22 20 17 19 16 15 15 16 14 14 11 12 15 17 18 17 15 14 13 16 15 15 6 6 4 10 18 17 17 19 23 24 23 28 34 35 35
34 36 33 30 28 27 25 20 18 16 16 13 15 15 16 13 11 12 16 17 18 18 15 13 13 12 13 16 13 8 3 4 7 16 16 20 23 29 30 25 30 30 33
36 39 36 33 29 28 26 24 23 22 21 19 17 17 16 16 15 13 10 12 11 10 7 8 9 9 10 13 13 12 15 18 4 8 16 23 25 24 27 25 27 21 22
38 39 38 35 32 30 28 28 26 24 20 17 12 13 17 12 9 5 6 8 8 9 7 7 9 9 9 12 13 15 16 17 18 8 10 15 23 20 24 26 27 27 25
33 36 39 38 36 33 31 30 29 27 23 19 14 11 11 10 6 7 9 8 8 7 9 12 11 10 12 12 13 15 15 10 11 10 6 14 18 25 23 26 27 27 27
Wind_Direction
137 124 123 115 114 111 113 113 108 105 104 101 102 103 105 108 108 110 109 112 114 116 117 113 110 107 107 109 109 112 113 119 121 117 115 115 114 115 111 114 112 113 114
135 128 128 121 118 115 116 115 106 103 98 97 99 100 103 107 105 107 107 106 112 115 116 117 112 109 107 106 111 113 115 121 119 115 115 111 114 135 119 116 118 119 122
135 133 128 127 122 119 120 120 109 97 95 98 101 102 102 104 109 109 107 110 113 118 120 117 118 114 113 113 115 115 117 122 121 108 118 128 123 123 134 129 133 129 124
137 133 129 128 125 122 126 124 118 105 97 102 103 102 102 103 103 105 111 114 112 113 111 115 122 122 115 118 120 122 123 126 137 107 114 132 137 136 135 136 137 137 140
140 136 130 131 126 126 127 128 124 110 102 104 102 101 101 101 105 108 104 108 113 109 104 103 111 120 122 126 125 127 131 142 183 191 174 163 147 144 149 145 144 149 145
143 142 135 129 127 127 130 128 125 115 112 111 108 101 103 105 106 113 108 112 119 116 119 121 116 127 135 141 135 119 97 68 240 200 184 193 166 150 145 154 161 160 150
144 144 141 138 134 132 132 130 127 120 119 115 109 108 105 106 120 109 113 115 125 117 125 115 111 118 138 156 159 147 93 82 135 183 190 188 183 171 163 163 169 164 156
149 148 144 144 140 134 132 133 132 129 125 118 112 108 111 118 112 109 106 110 123 144 142 134 136 117 131 172 204 224 190 60 136 186 186 195 187 178 176 175 175 178 175
154 152 152 154 144 142 140 139 134 131 130 126 117 111 110 109 106 104 111 124 135 150 163 170 183 208 201 251 262 263 262 149 82 208 206 205 199 194 188 184 187 186 186
156 158 158 157 155 154 155 146 141 141 139 135 132 127 117 102 107 115 121 135 152 171 187 214 245 265 273 281 271 275 285 258 274 231 223 218 224 207 203 197 196 199 199
159 163 164 163 165 164 163 161 155 155 155 153 153 146 130 116 108 129 114 85 251 229 226 241 276 280 280 278 278 282 292 292 312 218 244 230 224 219 215 208 206 206 207
165 169 171 171 172 171 173 178 180 177 174 174 171 168 164 244 239 285 277 267 244 273 270 272 286 304 295 294 288 310 293 293 291 283 265 239 227 223 223 219 214 215 215
169 170 178 178 179 182 187 192 197 203 200 198 203 196 197 314 245 243 267 278 269 270 281 294 286 277 281 280 281 303 296 295 306 302 298 233 230 232 223 228 225 224 223
175 177 177 181 183 187 194 198 199 205 207 214 212 208 215 222 232 246 263 289 278 271 275 279 299 264 272 271 266 276 283 277 285 295 304 227 241 249 254 236 234 233 231
178 182 183 185 190 190 195 200 205 205 202 205 211 213 222 229 238 242 266 265 277 278 271 286 293 265 276 265 264 275 288 285 281 282 279 259 252 254 255 258 249 241 239
183 184 183 187 194 196 205 212 213 215 220 227 232 240 230 236 231 234 247 257 268 279 279 291 280 265 285 273 270 276 286 294 296 292 275 275 259 253 258 262 262 256 249
187 185 186 187 190 199 207 211 233 234 238 245 251 251 248 250 242 245 249 266 273 281 288 301 299 275 280 281 277 287 283 282 291 288 283 274 269 261 252 257 265 262 262
187 189 189 190 189 191 201 207 185 191 196 191 186 281 257 244 238 264 278 272 294 284 287 288 295 291 284 290 294 288 283 288 298 279 280 276 270 267 259 253 258 263 260
190 185 190 193 191 191 200 207 214 217 221 236 284 276 280 251 240 254 254 276 292 294 287 294 291 288 290 290 299 288 281 281 303 272 270 282 273 273 275 270 259 263 264
184 185 187 191 197 205 208 202 214 225 223 233 245 255 262 266 248 245 259 270 275 280 289 295 294 299 304 297 301 282 281 285 281 282 279 283 273 270 270 267 268 262 258
183 186 189 193 198 197 197 201 215 225 217 232 248 254 250 263 260 254 268 271 279 285 298 306 304 306 303 307 301 304 290 285 280 278 276 271 270 270 268 270 264 263 259
187 192 192 196 199 199 200 205 214 221 231 238 246 248 253 255 250 261 266 276 283 287 298 310 306 305 304 309 281 282 301 311 282 277 270 284 295 284 279 280 276 264 262
187 191 191 190 191 198 202 207 219 227 237 240 243 238 239 244 260 283 283 275 285 283 290 299 308 304 301 307 307 261 302 252 308 296 290 287 285 280 286 278 267 264 264
191 196 198 197 197 201 206 211 215 220 231 242 248 251 252 248 253 284 288 293 301 291 300 313 312 311 305 305 312 301 287 279 286 305 300 302 296 287 287 276 265 280 268
191 194 200 200 204 207 208 211 215 221 225 235 256 257 226 221 235 274 310 314 316 318 320 317 320 318 314 309 312 313 302 294 291 268 296 299 300 294 283 282 278 274 273
192 194 198 201 203 208 210 212 216 220 227 225 204 199 199 210 240 297 306 320 328 330 321 320 323 324 323 319 314 312 314 303 293 274 285 290 286 292 287 288 283 274 272